Weather in Lugovskiy

Russia / Irkutsk Oblast     58°03′38″N   112°52′31″E
temp.,
°C
wind,
m/s
gust,
m/s
humid.,
%
clouds,
%
prec.,
mm/h
press.,
hPa
HPBL,
m
14 may, fri
fri1423:00−3wnw11875 0.0 101810
02:00−4wsw119011 0.0 101910
05:00−3sw11895 0.0 101916
08:00+4wsw11675 0.0 1017262
11:00+9nw124690 0.0 10151865
14:00+9wnw224281 0.0 10141885
17:00+10wnw224336 0.0 10131816
20:00+5wsw11725 0.0 101410
15 may, sat
sat1523:000ssw11815 0.0 101510
02:00−1ssw11879 0.0 101511
05:00−1s11865 0.0 101421
08:00+6sse235821 0.0 1011417
11:00+11ssw354450 0.0 10071051
14:00+12sw5740100 0.0 10032367
17:00+5wsw41071100 2.3 10071313
20:00+4wsw496470 2.4 1007648
16 may, sun
sun1623:000s248181 0.1 100664
02:000s3599100 0.9 1003169
05:000wsw5119380 2.5 1003990
08:00+2w7128387 3.0 10041149
11:00+3wnw81168100 0.9 10051696
14:00+4wnw81155100 1.9 10051997
17:00+4wnw7125372 0.5 10062059
20:00+1nw38635 0.7 1008586
17 may, mon
mon1723:00−2wsw2278100 0.0 101037
02:00−2sw248081 0.1 100990
05:00−3sw228241 0.1 100960
08:00+2wsw135698 0.1 10071100
11:00+4w3549100 0.3 10051574
14:00+5wnw6747100 1.0 10041883
17:00+5nw4647100 0.2 10031631
20:00+1w118434 0.6 1006293
18 may, tue
tue1823:00−1wnw1191100 0.0 100653
02:00−2wsw1193100 0.4 100677
05:00−1w1288100 0.6 100699
08:000wsw1371100 1.6 1006754
11:00+2wnw4652100 1.2 10041735
14:00+4wnw5746100 1.8 10032048
17:00+3wnw5653100 0.6 10021480
20:00+1w2166100 0.8 100226